IRIDIUM 33 DEB

Satellite information

Favourite Embed

Satellite Type and Status

DEBRISIN ORBIT

Key statistics

Satellite IRIDIUM 33 DEB at a glance.

Uptime

10158

Days in orbit

Revolutions

≈ 14.7

Per day

Orbit

LEO

Low Earth Orbit

Inclination

86.4

Latest

Satellite identification and parameters

Extended collection of information and parameters for IRIDIUM 33 DEB.

Object identification

Identified? True

Debris? True

Object name: IRIDIUM 33 DEB

International designator: 1997-051SY

Object number (NORAD): 35848

Object ID (CCSDS): 35848

Country: UNITED STATES OF AMERICA (US)

Current information (Y/N): Y

RCS size: SMALL

Orbital parameters

Period: 97.678 minutes

Inclination: 86.3897 deg

SMA: 7025.745 km

Apoapsis: 656.33 km

Periapsis: 638.89 km

RAAN: 88.3675 deg

Eccentricy: 0.0012411

Argument of periapsis: 58.5104 deg

Mean anomaly: 301.7325 deg

Mean motion: 14.74226442 rev/day

Mean motion (dot): 0.00007008 rev/day2

B* drag term: 0.0010559 1/REarth

Two-line elements (TLE)

Creation date: July 5, 2025, 4:36 a.m.

Reference frame: TEME

Reference center: EARTH

Epoch: July 4, 2025, 10:58 a.m. UTC

TLE line 0: 0 IRIDIUM 33 DEB

TLE line 1: 1 35848U 97051SY 25185.45707989 .00007008 00000-0 10559-2 0 9997

TLE line 2: 2 35848 86.3897 88.3675 0012411 58.5104 301.7325 14.74226442643112

Live tracking on map

Real-time ground track for satellite IRIDIUM 33 DEB.

In-orbit conjunctions

A list of the most updated potential collisions computed for object IRIDIUM 33 DEB.

Target Orbit TCA Probability of collision Miss distance Type
CZ-6A DEB LEO 2025-02-20 12:58:28 0.0002592365 808.0 (m) DEBRIS
FENGYUN 1C DEB SSO 2024-10-22 08:36:17 0.0001138657 98.0 (m) DEBRIS
PSLV R/B SSO 2024-06-14 13:22:39 0.000221482 185.0 (m) ROCKET BODY

Associated space launch

Iridium provides global mobile telecommunications services using a constellation of 66 low earth orbit satellites in a 86.4° inclined orbit. Although 77 satellites were originally envisioned for the system and spawned the name based on the 77th element in the periodic table, the system has been scaled back. Motorola's Satellite Communications Group designed and manufactured the Iridium satellites with Lockheed Martin providing the LM-700A spacecraft buses.

IRIDIUM 33 DEB was lifted into orbit during the mission ‘Proton-K/17S40 | Iridium 27 to 33’, on board a Proton-K/17S40 space rocket.

The launch took place on Sept. 14, 1997, 1:36 a.m. from 81/23 (81L).

For more information about the launch, click the button.

Launch to space Proton-K/17S40 | Iridium 27 to 33
Proton-K/17S40 | Iridium 27 to 33

Agency: N/A

Status: Launch Successful

Launch date: Sept. 14, 1997, 1:36 a.m. UTC

Rocket: Proton-K/17S40

Launch pad: 81/23 (81L)

Location: Baikonur Cosmodrome, Republic of Kazakhstan

...

Latest news about this satellite

There are no fresh news available about this satellite. Check back as we update our databases every day.


Newsletter sign-up

Weekly statistics, charts and insights to help you stay on top of the space industry.